Location: Stockholm
(59.3330°N, 18.0500°E)
Time: 13:49:49
(UTC+01:00)

Envisat - Pass Details

Date: 02 December 2022
Orbit: 763 x 765 km, 98.2° (Epoch: 29 January)

Event Time Altitude Azimuth Distance (km) Brightness Sun altitude
Rises 04:13:21 0° 17° (NNE) 3,250 6.5 -29.4°
Reaches altitude 10° 04:15:41 10° 20° (NNE) 2,319 5.7 -29.1°
Maximum altitude 04:20:48 71° 104° (ESE) 816 3.1 -28.4°
Enters shadow 04:21:04 69° 130° (SE) 824 3.1 -28.4°
